Regional Weather Roundup
Issued by NWS Lake Charles, LA

Current Version | Previous Version | Text Only | Print | Product List | Glossary On
Versions: 1 2 3 4 5 6 7 8 9 10 11 12 13 14 15 16 17 18 19 20 21 22 23 24 25 26 27 28 29 30 31 32 33 34 35 36 37 38 39 40 41 42 43 44 45 46 47 48 49 50
000
ASUS44 KLCH 280710
RWRLCH
RWRLCH
REGIONAL WEATHER ROUNDUP
NATIONAL WEATHER SERVICE LAKE CHARLES LA
200 AM CDT THU AUG 28 2014

Note: "fair" indicates few or no clouds below 12,000 feet with no
significant weather and/or obstructions to visibility.


ACROSS SOUTHEAST TEXAS

CITY           SKY/WX    TMP DP  RH WIND       PRES   REMARKS
BEAUMONT       PTCLDY    81  75  82 NE8       29.96S
BEAUMONT CITY    N/A     76  75  95 NE5       29.97S
ORANGE         MOSUNNY   76  76 100 CALM      29.98S
JASPER         CLEAR     73  70  92 CALM      30.01S
$$

ACROSS CENTRAL LOUISIANA

CITY           SKY/WX    TMP DP  RH WIND       PRES   REMARKS
LEESVILLE      CLEAR     74  72  93 CALM      29.99F
FULLERTON        N/A     75  71  87 CALM      29.97F
ALEXANDRIA INT CLEAR     76  73  91 CALM      29.97F
ESLER FIELD    PTCLDY    75  73  93 CALM      29.99F
DERIDDER         N/A     76  72  89 CALM      30.01S
OAKDALE        SUNNY     72  71  95 CALM      29.99S FOG
OPELOUSAS        N/A    N/A N/A N/A CALM      29.98F
$$

ACROSS SOUTHWEST AND SOUTH CENTRAL LOUISIANA

CITY           SKY/WX    TMP DP  RH WIND       PRES   REMARKS
SULPHUR        MOSUNNY   78  75  90 CALM      29.98S
LAKE CHARLES   MOCLDY    77  74  90 NE3       29.97S
CHENNAULT INT  PTCLDY    77  72  84 NE3       29.98F
CAMERON PHI      N/A     79  75  89 NE6       29.96F
DEQUINCY         N/A     73  72  96 CALM      29.98S
JENNINGS         N/A     76  74  94 CALM      29.98S
LAFAYETTE      CLOUDY    77  74  90 NE3       29.99S
NEW IBERIA     CLOUDY    78  76  93 NE7       29.99S
ABBEVILLE        N/A     74  74  99 N3        29.98S
PATTERSON        N/A     75  73  94 NE6       30.00F
SALT POINT       N/A     80  77  90 CALM      29.96S
$$

SELECTED SITES ACROSS THE REGION

CITY           SKY/WX    TMP DP  RH WIND       PRES   REMARKS
HOUSTON BUSH   PTCLDY    75  73  94 NW3       29.96S
HOUSTON HOBBY  PTCLDY    80  75  84 NE3       29.94F
GALVESTON      PTCLDY    85  76  74 E12       29.94F
COLLEGE STAT   CLEAR     79  71  76 SE5       29.97F
CONROE         CLEAR     73  71  93 CALM      29.98F
HUNTSVILLE     CLEAR     76  71  85 CALM      29.98F
LUFKIN         PTCLDY    77  72  84 CALM      29.99S
SHREVEPORT     PTCLDY    75  68  78 CALM      29.99S
MONROE         CLEAR     72  70  93 CALM      30.01S
NATCHEZ MS     PTCLDY    75  72  88 CALM      30.01F
BATON ROUGE    PTCLDY    76  74  93 CALM      29.99F
N.O. INTL ARPT MOCLDY    81  75  82 SE3       29.98F
SLIDELL        MOCLDY    76  73  91 CALM      29.98F
$$

MARINE REPORTS

STATION/POSITION TIME  TEMP    WIND        PRES    VSBY  WAVE
                       AIR SEA DIR/SP/G                  HT/PER
                 (UTC) (F)     (DEG/KT/KT) (MB)    (MI)  (FT/S)
BUOY 30 S HIGH I 0700   85 87  110/ 14/ 17 1013.2F         4/ 6
SEA RIM ST PARK  0700   80      40/  7/  8 1014.7F
PORT ARTHUR      0700      87   60/  5/  7 1014.6S
SABINE PASS N    0700           50/  5/  7 1014.4F
TEXAS POINT      0700   85 85  110/ 12/ 14 1014.3F
CALCASIEU PASS   0700   79 85   70/  6/  7 1015.6F
LK CHARLES BEACH 0700   79 88              1015.7S
MARSH ISLAND     NOT AVBL
FRESH WATER LOCK 0700   81 85   60/  3/  4 1014.5F
AMERADA PASS     0700   77 85   80/  2/  5 1014.7F
$$


USA.gov is the U.S. government's official web portal to all federal, state and local government web resources and services.